Seattle, WA

2:58 AM PDT on September 23, 2017 (GMT -0700)
Seattle-Tacoma International

Weather History for KSEA - October, 2006

Change the Weather History Date:

Monday, October 30, 2006

  Actual Average Record
Temperature  
Mean Temperature 39 °F 49 °F  
Max Temperature 45 °F 55 °F 66 °F (1967)
Min Temperature 32 °F 43 °F 30 °F (1991)
Degree Days  
Heating Degree Days 26 16  
Month to date heating degree days 362 363  
Since 1 July heating degree days 536 580  
Cooling Degree Days 0 0  
Month to date cooling degree days 0 0  
Year to date cooling degree days 270 189  
Moisture  
Dew Point 28 °F    
Average Humidity 69    
Maximum Humidity 89    
Minimum Humidity 49    
Precipitation  
Precipitation 0.00 in 0.17 in 1.36 in (2012)
Month to date precipitation 1.55 3.31  
Year to date precipitation 25.49 25.40  
Snow  
Snow 0.00 in - - ()
Month to date snowfall  
Since 1 July snowfall  
Snow Depth -    
Sea Level Pressure  
Sea Level Pressure 30.29 in    
Wind  
Wind Speed 9 mph (NNE)    
Max Wind Speed 15 mph    
Max Gust Speed 18 mph    
Visibility 10 miles    
Events      
T = Trace of Precipitation, MM = Missing Value Source: NWS Daily Summary

Daily Weather History Graph

Daily Weather History Graph

Search for Another Location

Airport or City:

Trip Planner

Search our weather history database for the weather conditions in past years. The results will help you decide how hot, cold, wet, or windy it might be!

Date:

Astronomy

Oct. 30, 2006 Rise Set
Actual Time 6:50 AM PST 4:55 PM PST
Civil Twilight 6:18 AM PST 5:27 PM PST
Nautical Twilight 5:41 AM PST 6:03 PM PST
Astronomical Twilight 5:06 AM PST 6:38 PM PST
Moon 2:29 PM PST (10/30) No Moon Set
Length of Visible Light 11h 08m
Length of Day
10h 05m
First Quarter, 60% of the Moon is Illuminated
Oct 30
First Quarter
Nov 5
Full
Nov 12
Last Quarter
Nov 20
New
Nov 27
First Quarter

Hourly Weather History & Observations

Time (PST) Temp. Windchill Dew Point Humidity Pressure Visibility Wind Dir Wind Speed Gust Speed Precip Events Conditions
12:53 AM 37.0 °F 31.0 °F 30.0 °F 76% 30.23 in 10.0 mi NNE 8.1 mph - N/A   Clear
1:53 AM 37.9 °F 32.1 °F 27.0 °F 65% 30.25 in 10.0 mi NE 8.1 mph - N/A   Clear
2:53 AM 33.1 °F 27.7 °F 30.9 °F 92% 30.27 in 10.0 mi South 5.8 mph - N/A   Clear
3:53 AM 33.1 °F - 30.9 °F 92% 30.28 in 10.0 mi Calm Calm - N/A   Clear
4:53 AM 34.0 °F 28.0 °F 28.0 °F 79% 30.29 in 10.0 mi ENE 6.9 mph - N/A   Clear
5:53 AM 33.1 °F 27.7 °F 28.0 °F 82% 30.30 in 10.0 mi ENE 5.8 mph - N/A   Clear
6:53 AM 33.1 °F 26.9 °F 28.9 °F 85% 30.30 in 10.0 mi NNE 6.9 mph - N/A   Clear
7:53 AM 35.1 °F 27.4 °F 30.0 °F 82% 30.32 in 10.0 mi NE 10.4 mph - N/A   Clear
8:53 AM 37.0 °F 30.4 °F 28.9 °F 73% 30.33 in 10.0 mi NNE 9.2 mph - N/A   Partly Cloudy
9:53 AM 39.9 °F 35.1 °F 28.9 °F 65% 30.34 in 10.0 mi ENE 6.9 mph - N/A   Partly Cloudy
10:53 AM 41.0 °F 34.7 °F 27.0 °F 57% 30.34 in 10.0 mi NNE 10.4 mph - N/A   Partly Cloudy
11:53 AM 42.1 °F 35.7 °F 27.0 °F 55% 30.32 in 10.0 mi North 11.5 mph - N/A   Partly Cloudy
12:53 PM 44.1 °F 38.6 °F 27.0 °F 51% 30.31 in 10.0 mi NNE 10.4 mph - N/A   Partly Cloudy
1:53 PM 45.0 °F 39.7 °F 28.9 °F 53% 30.30 in 10.0 mi NNE 10.4 mph - N/A   Partly Cloudy
2:53 PM 45.0 °F 40.1 °F 30.0 °F 56% 30.30 in 10.0 mi NE 9.2 mph - N/A   Partly Cloudy
3:53 PM 44.1 °F 38.6 °F 27.0 °F 51% 30.29 in 10.0 mi NNE 10.4 mph - N/A   Partly Cloudy
4:53 PM 41.0 °F 34.7 °F 28.0 °F 60% 30.28 in 10.0 mi North 10.4 mph - N/A   Partly Cloudy
5:53 PM 39.0 °F 33.4 °F 28.9 °F 67% 30.28 in 10.0 mi North 8.1 mph - N/A   Clear
6:53 PM 39.0 °F 31.4 °F 25.0 °F 57% 30.28 in 10.0 mi NNE 12.7 mph - N/A   Clear
7:53 PM 37.9 °F 29.6 °F 27.0 °F 65% 30.28 in 10.0 mi NE 13.8 mph - N/A   Clear
8:53 PM 37.0 °F 29.8 °F 28.0 °F 70% 30.28 in 10.0 mi NNE 10.4 mph - N/A   Clear
9:53 PM 37.0 °F 29.3 °F 25.0 °F 62% 30.28 in 10.0 mi NNE 11.5 mph - N/A   Clear
10:53 PM 37.0 °F 28.1 °F 24.1 °F 59% 30.28 in 10.0 mi NNE 15.0 mph - N/A   Clear
11:53 PM 34.0 °F 26.0 °F 26.1 °F 73% 30.27 in 10.0 mi NNE 10.4 mph - N/A   Clear